Hourly Data Report for October 24, 2014

All times are specified in Local Standard Time (LST). Add 1 hour to adjust for Daylight Saving Time where and when it is observed.

CHARLOTTETOWN A
PRINCE EDWARD ISLAND

46°17'21.000" N
63°07'09.000" W
48.50 m
8300301
71706
YYG

Download Data

Hourly Data (October 2014)
Hourly Data Report for October 24, 2014
Temp Definition
°C
Dew Point Temp Definition
°C
Rel Hum Definition
%
Wind Dir Definition
10's deg

Wind Spd Definition
km/h
Visibility Definition
km
Stn Press Definition
kPa
Hmdx Definition


Wind Chill Definition


Weather Definition


TIME
00:00 Legend Double Dagger 9.8 8.7 93 4 28 24.1 100.52     Rain Showers
01:00 Legend Double Dagger 10.2 9.0 92 5 29 24.1 100.40     Rain Showers
02:00 Legend Double Dagger 10.3 9.4 94 4 32 24.1 100.27     Rain Showers
03:00 Legend Double Dagger 10.4 9.5 94 5 34 24.1 100.18     Rain Showers
04:00 Legend Double Dagger 10.2 9.6 96 4 45 24.1 99.99     LegendNANA
05:00 Legend Double Dagger 10.1 9.3 95 5 36 19.3 99.99     Rain Showers
06:00 Legend Double Dagger 10.3 9.5 95 7 21 24.1 99.99     Rain Showers
07:00 Legend Double Dagger 10.3 9.5 95 4 23 24.1 99.94     LegendNANA
08:00 Legend Double Dagger 10.7 9.8 94 5 32 16.1 99.82     Rain Showers
09:00 Legend Double Dagger 10.7 10.1 96 6 18 8.1 99.79     Moderate Rain,Fog
10:00 Legend Double Dagger 10.9 10.3 96 5 19 8.1 99.74     Rain,Fog
11:00 Legend Double Dagger 11.7 11.2 97 4 17 12.9 99.65     Rain
12:00 Legend Double Dagger 12.4 11.6 95 4 14 24.1 99.56     LegendNANA
13:00 Legend Double Dagger 12.6 12.3 98 5 10 4.8 99.50     Drizzle,Fog
14:00 Legend Double Dagger 12.7 12.4 98 1 9 2.4 99.41     Fog
15:00 Legend Double Dagger 12.5 12.4 99 2 16 1.6 99.37     Fog
16:00 Legend Double Dagger 12.0 11.9 99 3 18 1.6 99.33     Fog
17:00 Legend Double Dagger 11.9 11.8 99 2 16 2.4 99.27     Fog
18:00 Legend Double Dagger 11.3 11.2 99 2 20 2.4 99.23     Fog
19:00 Legend Double Dagger 11.1 11.0 99 2 17 2.4 99.20     Fog
20:00 Legend Double Dagger 11.0 10.9 99 1 16 2.4 99.16     Fog
21:00 Legend Double Dagger 10.8 10.7 99 36 16 3.2 99.14     Moderate Rain Showers,Fog
22:00 Legend Double Dagger 10.7 10.6 99 36 16 1.6 99.09     Fog
23:00 Legend Double Dagger 10.7 10.6 99 36 15 1.6 99.04     Fog

Notes on Data Quality.

Legend

  • E = Estimated
  • M = Missing
  • NA = Not Available
  • ‡ = Partner data that is not subject to review by the National Climate Archives
Date modified: